GFSNIL_sfc_wetblb_000.txt.gz
Wetbulb
57.79 56.32 55.69 56.14 56.28 55.42 55.54 56.30 57.34 58.05 58.59 59.40 60.11 59.88 59.86 60.10 59.66 59.67 60.76 60.75 60.65 60.65
58.08 56.38 56.50 56.64 56.40 55.94 55.92 57.29 57.81 58.50 58.82 59.59 59.83 60.19 60.19 60.61 60.86 61.08 60.83 60.79 61.13 61.87
58.62 57.49 56.95 57.14 56.68 56.36 56.74 57.70 58.02 58.51 58.99 59.44 60.11 60.55 60.49 61.25 62.26 61.94 60.76 61.28 62.24 61.55
59.05 57.99 56.71 57.47 57.11 56.89 56.79 57.24 58.15 58.85 59.27 59.39 59.75 60.06 61.30 61.48 61.72 61.42 61.55 61.46 61.90 61.18
59.63 58.32 57.20 57.47 57.09 57.32 57.12 57.77 58.42 59.56 59.61 59.72 59.64 60.13 60.45 60.93 61.66 61.46 61.11 61.28 61.44 60.67
58.36 57.57 57.29 56.89 57.35 57.26 57.66 58.09 59.23 59.91 59.90 59.58 60.02 59.84 59.68 59.98 60.32 61.33 61.44 61.85 61.17 60.93
57.46 57.75 57.30 57.79 57.86 57.85 58.75 58.81 59.50 60.11 60.16 60.22 60.31 59.95 59.47 59.72 60.26 61.48 61.54 61.30 61.24 61.65
56.75 57.62 57.75 58.00 58.22 58.49 59.14 59.39 60.01 60.43 60.41 60.57 60.37 59.96 59.55 59.81 60.25 61.28 61.19 61.24 61.06 61.42
56.86 57.60 57.73 57.75 57.97 58.20 58.45 59.14 60.08 60.43 60.46 60.37 60.94 49.45 53.44 58.36 60.09 61.51 61.41 60.29 60.16 60.01
56.97 57.61 56.84 57.27 57.32 57.03 57.18 58.13 58.95 58.96 59.90 60.25 58.91 47.09 49.63 53.26 61.23 61.07 60.75 60.35 60.92 61.16
56.76 57.19 56.50 56.61 56.38 54.97 55.52 56.91 57.15 56.93 58.71 59.07 56.56 47.09 47.82 52.53 60.79 60.84 61.34 61.35 61.28 61.23
56.01 56.48 55.95 55.83 54.98 54.31 54.66 54.52 55.30 55.88 58.26 58.61 56.70 45.64 46.37 56.82 61.19 60.57 60.95 61.52 60.45 60.85
56.09 56.45 55.67 55.16 54.36 54.14 54.29 54.60 54.28 54.73 57.35 54.65 57.48 44.92 46.55 56.12 60.26 59.15 58.93 59.28 59.15 52.68
55.78 55.75 55.89 55.09 54.57 54.04 53.31 53.52 53.09 52.97 53.14 55.67 56.18 53.45 44.92 49.45 59.62 58.45 57.59 58.15 57.58 58.27

GFSNIL_sfc_wetblb_003.txt.gz
Wetbulb
65.00 63.45 62.84 62.49 62.23 61.44 61.98 62.27 63.35 62.90 63.52 64.15 63.98 64.37 64.68 64.60 63.62 64.14 65.15 64.35 64.21 64.28
64.95 63.25 63.06 62.95 62.58 61.89 62.44 62.14 62.86 63.07 63.55 63.90 64.08 64.81 64.69 64.99 64.50 64.03 64.18 64.43 64.26 63.77
65.20 63.98 63.50 62.98 62.29 62.11 62.36 62.56 62.59 62.71 63.38 63.86 64.48 64.95 65.22 64.47 64.29 64.15 64.80 64.47 65.05 64.43
65.07 63.88 63.24 63.00 62.56 62.17 62.55 62.52 62.11 62.54 62.96 63.41 64.23 65.08 64.73 63.77 62.78 62.91 63.97 64.88 62.81 63.18
65.17 63.91 62.94 63.13 63.03 62.79 62.32 62.56 62.34 63.29 63.03 63.10 63.86 64.65 64.04 62.55 61.87 61.80 62.13 62.35 62.09 62.34
64.53 64.41 64.00 63.25 62.96 63.05 62.86 62.96 63.22 63.82 63.41 63.58 63.75 64.23 64.23 63.81 62.52 62.43 62.68 63.46 62.47 63.27
64.10 63.96 63.70 63.29 63.14 63.13 63.53 63.29 64.20 64.41 63.74 63.93 63.81 63.45 63.79 63.34 62.50 62.76 63.02 63.40 63.60 63.81
63.85 63.45 63.55 63.52 63.20 63.70 64.01 64.05 64.10 64.15 63.93 64.03 63.62 62.84 63.43 63.38 62.53 63.33 62.82 64.07 64.02 64.52
62.73 62.55 63.24 63.22 63.57 63.67 63.82 64.13 64.26 63.65 63.34 63.42 62.75 49.41 53.84 60.29 62.50 63.71 64.02 63.74 63.98 63.84
62.46 62.25 62.65 63.03 63.15 63.03 63.28 64.09 64.24 63.94 63.74 63.63 63.08 47.78 49.05 53.18 63.04 63.14 63.73 64.55 63.94 63.12
62.38 62.05 62.66 62.72 62.49 62.47 63.09 63.74 63.61 63.76 64.12 63.92 62.03 46.33 47.42 51.41 62.72 62.35 62.54 64.63 64.72 64.03
62.42 61.96 62.35 62.46 62.25 61.62 62.59 62.95 62.59 62.96 63.54 63.42 61.01 45.97 46.88 56.70 61.24 61.67 62.39 63.80 64.56 64.37
62.24 62.72 62.64 63.21 62.18 61.96 63.23 62.62 61.68 62.25 63.88 58.23 60.89 44.88 46.33 57.04 63.38 62.20 62.50 61.76 60.84 53.10
62.26 63.21 63.51 63.43 62.23 61.61 61.80 61.18 60.88 60.98 62.12 62.89 61.06 57.41 45.25 49.96 60.66 62.11 62.39 61.84 62.46 61.94

GFSNIL_sfc_wetblb_006.txt.gz
Wetbulb
67.55 65.68 65.38 65.31 65.17 64.70 64.31 63.68 65.72 65.57 65.65 65.63 65.76 66.25 66.55 66.06 65.41 65.65 65.28 64.83 65.79 66.03
67.06 65.71 65.41 65.69 65.75 64.59 64.99 64.24 65.06 65.17 65.27 66.19 65.93 65.89 65.97 65.47 65.79 65.77 64.87 65.42 66.65 67.52
66.80 66.35 66.04 65.42 64.69 64.66 64.88 64.36 64.48 64.43 65.92 66.13 66.18 65.65 65.99 66.46 65.55 65.57 65.00 64.83 65.24 65.33
66.33 66.09 65.82 65.40 64.82 64.54 64.87 64.80 63.95 63.66 64.55 65.44 65.39 66.11 66.29 64.99 64.33 64.63 64.70 65.63 64.47 65.71
66.40 66.45 65.81 65.28 65.21 64.83 64.19 64.61 63.75 64.03 64.13 64.36 65.47 65.81 65.11 63.92 62.87 63.03 63.77 63.22 65.27 65.28
65.83 65.68 65.56 65.55 65.74 64.91 64.33 64.11 64.03 64.41 63.82 64.32 64.73 65.18 65.33 64.61 62.74 62.65 64.34 64.82 65.31 65.88
65.50 65.87 65.95 65.68 65.17 64.94 64.86 64.58 65.27 65.26 64.89 64.93 64.45 64.97 65.00 63.44 62.65 63.44 64.48 64.62 65.69 65.84
65.75 65.92 65.59 65.34 65.07 65.21 65.30 65.29 65.45 65.16 65.03 65.35 64.78 63.80 63.87 63.22 65.09 64.82 63.77 64.35 64.08 64.24
64.48 64.71 65.20 65.17 65.23 65.44 64.99 65.23 64.95 64.69 64.74 64.75 63.58 50.57 55.14 60.98 64.21 65.36 65.28 64.78 63.55 64.25
64.13 64.35 64.72 64.99 64.99 64.89 65.10 65.83 64.99 65.02 64.94 64.57 63.69 48.72 49.48 53.11 64.16 65.74 65.31 65.82 65.14 63.40
64.05 64.41 65.09 65.12 64.86 65.27 65.67 65.79 65.20 65.02 65.37 64.40 61.72 47.65 47.49 51.84 64.95 65.91 65.22 65.22 65.11 65.04
63.89 64.17 64.29 64.30 65.35 65.65 65.62 65.49 65.05 65.18 65.29 65.02 62.79 46.91 47.67 55.79 62.38 64.93 64.39 65.47 65.47 64.83
64.48 64.20 64.23 65.05 64.96 66.15 65.83 65.04 64.87 65.17 65.91 58.85 63.64 46.40 46.94 55.44 62.87 63.98 63.51 65.19 65.16 50.67
65.02 65.09 65.71 66.12 65.79 65.83 65.02 64.59 64.76 64.69 65.05 64.88 62.34 59.88 45.68 49.30 65.05 64.45 63.58 63.82 63.50 62.08

GFSNIL_sfc_wetblb_009.txt.gz
Wetbulb
67.96 66.20 65.82 65.86 65.46 64.94 64.63 64.83 65.90 65.87 66.21 66.36 65.83 66.13 66.84 68.08 66.85 66.26 66.44 65.68 66.37 66.10
67.46 66.52 66.50 67.03 66.85 65.65 66.98 64.92 65.45 65.61 65.70 65.86 65.98 65.92 66.23 66.61 65.53 66.02 65.79 66.61 66.49 66.34
66.72 66.75 66.94 66.51 65.82 65.57 65.84 64.93 64.81 64.95 65.56 65.41 65.57 65.64 66.13 66.04 66.30 65.79 65.12 66.01 66.02 66.53
66.22 66.01 66.64 66.08 65.39 65.29 65.48 64.88 64.23 64.47 64.53 64.36 64.67 66.30 66.56 66.02 65.13 64.24 65.44 65.54 65.22 65.75
66.34 66.62 66.26 66.01 65.40 65.49 64.59 64.51 64.27 64.23 64.23 63.98 65.22 65.68 65.48 63.98 64.14 64.24 64.46 65.48 65.32 65.15
66.01 66.34 66.29 66.08 66.22 65.00 64.42 64.08 64.20 64.42 63.86 64.22 64.89 65.24 64.45 63.61 64.05 64.14 64.93 65.28 65.58 65.46
65.57 65.79 66.40 65.73 65.28 64.96 64.18 63.79 65.26 64.72 64.65 64.65 64.70 64.87 64.82 62.88 64.39 64.31 64.51 65.12 66.24 65.71
66.13 66.19 65.79 65.17 65.09 64.84 64.78 64.78 65.16 64.36 64.60 65.13 65.07 64.31 65.36 65.16 65.15 63.08 63.40 65.10 64.93 64.66
65.25 65.26 65.41 65.01 65.27 64.78 65.13 64.58 65.52 64.71 64.16 64.59 63.93 50.54 54.03 60.10 65.24 64.29 64.24 63.21 62.28 62.62
64.92 64.60 64.83 64.87 64.33 64.53 65.80 66.76 65.37 64.79 64.96 64.75 63.50 49.65 49.49 53.04 65.74 66.00 65.69 64.89 64.43 62.69
64.71 64.72 64.41 64.79 65.05 65.64 66.39 65.75 65.47 65.47 65.27 64.64 61.50 49.31 49.13 52.03 66.22 66.36 65.66 65.75 65.22 63.85
65.09 64.73 64.96 64.50 65.45 66.38 66.88 66.56 65.86 65.52 65.19 64.66 62.38 48.40 47.31 55.93 65.42 64.61 65.18 65.31 65.33 65.00
65.27 64.98 64.58 65.35 65.95 66.54 66.65 65.92 65.67 65.25 65.77 59.50 63.40 47.84 46.05 55.07 64.82 64.73 64.11 65.60 64.62 52.04
65.74 65.49 66.38 65.98 66.25 66.19 65.57 65.54 66.00 65.36 65.67 65.41 63.68 59.98 46.77 47.86 65.80 65.17 64.59 63.07 63.48 61.72

GFSNIL_sfc_wetblb_012.txt.gz
Wetbulb
69.07 67.05 68.02 67.42 66.22 65.82 65.67 65.03 66.05 64.28 64.83 66.26 65.88 65.74 65.71 65.10 65.10 64.76 63.37 63.12 63.31 62.74
68.65 67.01 67.40 67.50 67.78 66.55 65.97 64.99 65.85 65.26 65.60 65.94 65.77 65.34 64.61 63.70 64.44 64.65 64.94 64.00 64.15 63.19
67.65 67.68 67.52 67.73 66.93 65.88 65.96 66.00 65.63 64.18 65.50 65.34 64.47 64.12 64.85 65.12 65.28 64.22 64.55 65.03 64.42 63.64
66.68 65.25 65.70 65.95 65.63 65.50 66.04 65.34 64.72 64.46 64.05 63.85 63.39 64.62 64.96 64.48 64.75 64.31 64.08 64.36 63.61 64.46
66.74 65.34 66.13 66.09 64.10 66.12 65.68 65.28 64.73 64.36 63.26 63.87 64.15 65.08 63.67 64.16 63.64 63.78 63.42 63.98 63.22 63.52
65.88 64.36 66.19 65.10 65.50 65.95 65.25 64.68 65.23 62.72 63.44 63.95 65.16 64.11 63.12 63.73 63.52 64.03 64.03 63.91 63.88 62.77
63.80 64.98 65.99 65.10 63.92 65.67 64.70 64.45 63.09 63.61 64.18 64.61 64.77 65.17 63.52 63.66 64.17 61.69 63.23 63.09 63.40 63.42
64.71 64.88 65.36 63.21 64.34 63.90 65.45 64.50 64.83 63.08 63.50 64.89 64.43 61.87 63.46 63.61 62.08 62.67 61.30 61.69 62.26 61.33
65.31 65.34 64.30 63.85 64.68 65.12 65.01 64.15 63.77 64.45 63.87 64.11 61.39 51.26 55.78 61.43 62.86 63.10 62.89 60.72 62.76 62.21
64.76 64.41 64.36 63.77 63.87 63.52 63.48 63.78 63.55 63.61 63.79 62.54 59.98 48.81 48.83 55.38 64.08 63.89 63.42 61.89 61.41 61.81
63.88 63.78 64.13 64.08 63.63 64.30 65.58 65.07 63.37 64.17 64.70 62.73 57.98 49.21 47.76 50.81 65.14 64.88 63.75 63.19 62.21 62.44
63.72 63.99 63.83 63.63 64.93 65.20 65.41 65.05 64.19 65.03 64.83 62.18 60.69 49.39 46.49 56.05 64.66 63.86 63.31 63.64 63.82 62.98
64.88 64.09 63.67 65.30 65.28 66.21 66.26 64.17 64.78 64.83 65.09 58.15 60.90 47.94 46.68 52.80 64.79 63.56 62.95 62.99 59.81 51.82
65.60 65.90 66.07 66.94 66.99 66.40 63.73 64.59 64.65 63.64 64.48 63.53 61.83 56.23 46.86 47.40 64.24 63.64 62.91 61.57 60.13 55.18

GFSNIL_sfc_wetblb_015.txt.gz
Wetbulb
61.95 61.30 61.05 60.86 61.04 60.76 60.09 59.69 59.91 60.16 60.54 61.69 62.22 62.23 61.80 60.99 60.29 60.03 59.51 58.93 58.33 58.46
62.38 62.25 61.57 61.15 60.45 60.37 60.03 60.46 59.96 60.64 60.74 61.46 61.96 62.09 60.74 59.79 59.56 60.33 59.71 59.35 59.42 58.91
62.32 62.24 61.89 61.02 60.65 59.56 59.68 61.33 60.45 60.05 60.69 61.24 62.47 62.02 60.96 59.73 61.02 60.35 60.07 61.15 60.80 59.97
61.93 61.87 61.26 60.93 60.21 59.64 59.67 59.29 59.65 60.26 61.40 61.95 61.83 61.65 60.96 60.47 60.68 60.44 60.55 60.41 60.37 61.04
60.96 61.82 60.93 60.32 61.48 59.79 58.85 59.42 59.59 60.50 61.88 63.18 62.74 60.81 60.98 60.44 60.31 60.51 60.28 60.62 60.91 60.90
61.59 62.30 60.71 60.36 61.26 59.92 59.77 58.76 60.99 61.96 62.99 62.84 62.09 61.48 60.75 61.23 61.28 60.86 60.15 60.64 60.75 60.65
61.94 62.21 60.90 60.45 61.62 59.96 59.89 58.49 61.42 61.57 63.16 62.56 62.76 62.63 61.58 62.83 61.45 60.93 60.90 61.40 61.88 61.87
61.72 62.96 62.05 62.19 60.59 60.41 58.91 60.91 61.99 61.78 62.59 60.35 59.66 60.75 61.81 62.00 61.47 60.72 60.59 61.10 61.02 61.90
61.32 63.44 61.92 61.82 61.59 61.75 60.29 61.48 60.96 61.42 60.22 58.21 58.70 50.24 52.81 59.49 61.63 61.72 60.79 61.10 60.32 60.07
62.05 60.93 60.51 62.00 61.04 60.22 60.00 61.28 60.98 60.79 58.59 56.57 54.97 47.38 48.85 52.09 62.48 61.34 60.79 59.33 61.17 60.58
61.89 61.55 61.86 61.20 59.29 59.77 60.03 60.14 60.45 60.18 58.13 55.86 53.78 47.38 46.67 52.29 61.98 62.39 61.55 60.97 60.79 60.44
61.93 61.10 61.45 61.51 59.61 59.75 59.85 59.92 59.34 60.12 57.77 56.08 53.96 47.92 46.13 57.82 61.84 61.84 61.25 61.57 62.03 61.36
61.89 62.06 60.76 60.16 59.73 60.41 59.94 61.05 60.67 60.79 58.59 55.08 55.36 47.58 45.94 55.32 61.83 60.03 59.29 59.07 59.05 52.75
61.00 60.77 61.59 60.88 60.84 60.69 60.50 60.63 60.45 59.73 58.60 57.90 56.18 53.22 45.76 50.11 61.15 60.27 58.91 58.46 58.56 56.16

GFSNIL_sfc_wetblb_021.txt.gz
Wetbulb
59.78 60.15 60.45 60.21 59.60 58.97 58.63 58.20 58.19 58.36 58.43 58.86 59.29 59.84 59.40 58.97 58.57 57.44 57.39 56.52 55.68 55.32
59.56 59.60 59.60 58.71 58.51 58.51 58.06 58.52 58.12 58.48 58.30 58.71 59.75 59.80 59.33 58.99 58.34 58.35 57.50 57.68 56.21 55.22
58.98 59.12 58.88 58.76 58.42 58.13 57.92 57.87 58.45 57.91 57.99 58.81 59.80 60.32 59.11 58.62 57.70 57.74 57.69 58.49 58.29 56.36
58.87 58.89 58.73 58.26 57.78 57.17 57.11 57.47 58.23 58.63 58.06 58.93 59.07 59.87 58.41 58.66 58.21 58.91 57.80 58.38 59.06 58.56
58.29 58.37 57.92 57.79 57.40 57.60 57.61 57.87 58.42 58.48 58.45 59.74 59.92 59.62 59.04 59.56 59.95 58.91 59.04 58.35 58.88 59.01
58.27 57.91 57.37 57.03 57.18 57.38 56.82 56.80 56.94 57.73 59.95 60.28 59.93 59.56 60.47 60.35 59.33 58.60 58.60 58.49 58.93 59.60
58.36 59.01 57.53 57.66 57.01 56.61 57.63 56.86 57.23 60.83 60.95 60.76 60.63 61.15 62.17 61.43 60.43 58.42 58.67 59.30 60.28 59.75
59.46 59.93 58.10 57.93 57.61 57.07 57.38 57.05 61.16 60.77 58.92 58.47 58.55 57.57 59.85 59.72 59.24 58.57 58.69 59.96 60.26 59.70
60.24 59.33 58.73 57.78 56.94 57.28 56.83 59.54 61.24 59.27 57.80 56.60 57.06 48.41 49.31 57.69 59.97 60.86 59.86 59.17 59.44 58.91
59.91 59.18 59.95 58.67 57.70 57.21 57.94 59.57 59.89 56.80 56.04 55.01 54.83 46.05 49.69 52.41 60.16 59.76 59.83 59.72 59.13 58.81
59.71 59.07 60.19 59.84 56.79 56.66 59.86 59.80 57.89 55.07 54.58 54.56 54.52 45.33 49.51 52.96 58.77 60.20 59.91 59.69 59.26 58.36
59.08 57.39 58.12 57.07 56.78 56.54 56.54 56.33 55.21 54.91 54.18 55.17 56.02 44.78 49.69 56.87 60.06 60.17 59.39 59.55 60.07 59.49
58.60 58.09 57.86 56.80 56.86 56.36 56.38 56.48 57.19 55.51 55.09 52.59 56.10 44.98 47.34 55.68 60.67 59.38 58.81 58.41 57.32 50.69
58.48 57.75 57.73 57.12 56.88 57.18 57.46 57.57 56.83 55.53 54.91 56.09 55.02 52.60 46.43 49.33 59.25 59.90 58.33 57.77 56.91 53.93

GFSNIL_sfc_wetblb_024.txt.gz
Wetbulb
61.41 61.46 61.49 61.55 61.24 60.60 59.73 59.78 60.40 60.75 60.15 59.76 60.58 60.73 60.76 60.31 60.22 59.73 59.17 59.11 58.35 58.21
60.42 60.87 60.20 59.64 60.16 59.92 59.77 59.86 59.78 59.97 59.68 60.02 60.73 61.23 61.23 60.74 60.80 60.42 59.80 59.71 58.76 58.27
59.83 60.28 60.00 60.11 59.57 59.48 59.26 59.67 59.50 59.32 59.74 60.45 61.22 61.61 61.42 60.96 60.49 60.00 59.70 60.18 59.48 58.60
59.40 59.62 59.76 59.31 59.30 59.25 58.58 58.92 59.45 59.72 59.77 60.32 60.72 61.22 60.69 60.64 60.44 59.84 59.72 60.12 60.16 60.20
59.05 59.02 58.75 58.45 58.31 58.53 58.21 59.02 59.84 60.13 60.19 60.34 60.49 61.03 60.52 60.54 61.14 59.79 60.09 60.28 60.36 60.40
58.19 58.18 58.05 57.84 58.30 58.93 58.67 58.68 59.16 59.25 59.98 61.26 61.22 60.88 60.83 60.81 61.31 60.26 60.31 60.62 60.42 60.62
58.20 58.23 58.03 58.04 58.25 58.54 58.77 58.18 59.24 61.37 61.47 61.71 61.56 61.85 62.41 62.08 60.92 59.97 60.55 61.14 61.15 60.90
59.24 59.14 58.49 58.35 57.90 58.11 58.72 58.41 61.71 61.00 60.00 59.87 59.90 57.54 59.19 60.92 60.63 60.00 59.84 61.46 60.94 61.28
59.93 59.18 58.82 58.68 58.01 58.24 58.34 60.51 61.59 60.18 59.02 58.42 57.74 47.32 51.33 57.73 61.35 60.40 60.06 59.72 59.29 59.44
60.17 59.27 59.39 58.39 57.99 58.05 58.41 61.09 60.00 58.49 57.95 57.14 57.13 45.31 49.51 52.96 60.67 60.31 60.23 59.65 58.97 58.11
59.88 59.32 60.30 58.82 57.85 58.08 60.35 60.44 59.31 57.43 56.69 57.34 55.03 46.25 50.24 51.51 61.40 60.13 59.59 59.29 58.51 57.73
59.76 58.87 59.40 57.73 58.09 58.40 59.42 59.47 57.97 56.69 56.35 57.93 57.43 46.61 48.97 56.44 60.13 59.81 59.43 59.56 59.24 58.94
59.69 58.47 58.31 58.00 57.88 58.50 58.45 58.13 57.81 56.40 57.34 53.90 57.51 45.71 47.70 56.85 60.27 58.71 58.05 58.27 57.22 50.65
59.12 58.48 58.63 58.19 58.76 58.57 58.46 58.18 57.60 56.88 57.06 57.72 55.70 52.99 46.25 50.96 60.22 58.72 57.62 57.18 56.31 53.97

GFSNIL_sfc_wetblb_027.txt.gz
Wetbulb
68.48 67.97 67.95 68.42 67.55 66.90 67.09 67.41 67.93 67.81 67.52 66.60 65.98 66.00 66.22 65.45 65.26 65.63 64.75 64.61 64.18 63.54
67.62 67.89 67.93 67.99 68.13 67.24 67.55 66.75 66.80 66.82 66.00 65.52 65.59 65.98 66.22 65.40 65.54 65.62 64.94 64.77 64.86 63.91
67.18 67.26 67.11 67.43 66.98 67.06 66.57 66.34 66.00 65.64 65.52 65.19 65.52 65.93 66.67 67.00 66.44 65.54 64.88 64.61 64.63 64.43
66.10 66.46 66.89 66.65 66.39 66.10 66.14 65.64 65.09 64.84 64.63 64.96 65.33 66.04 66.51 66.25 65.57 63.75 65.14 65.00 64.52 64.33
65.86 66.05 65.78 65.62 65.64 65.36 64.64 65.10 64.64 64.51 64.41 64.32 64.53 65.38 64.85 64.47 63.96 62.84 63.91 64.16 64.07 63.89
65.04 65.40 65.36 65.03 64.82 64.53 64.28 64.55 64.83 64.62 63.88 64.60 65.06 64.97 64.88 61.77 62.08 62.82 64.58 64.66 64.42 64.24
64.64 64.69 64.44 64.21 64.28 64.36 64.52 64.23 64.05 64.63 64.91 65.24 65.41 65.30 64.18 63.43 63.28 62.22 64.43 64.96 65.14 64.83
64.38 64.54 64.01 63.80 64.18 64.26 64.08 63.97 65.47 65.31 64.77 64.73 64.52 61.27 62.34 64.34 63.08 61.51 63.49 64.13 65.08 65.37
63.83 63.58 63.80 63.78 63.52 63.97 63.56 64.75 64.61 64.04 63.76 63.78 62.22 47.34 50.49 58.43 63.08 62.62 62.07 61.56 62.40 62.53
64.07 63.18 62.59 63.30 63.06 63.27 64.04 64.37 62.64 64.14 62.88 62.75 63.01 45.96 47.95 52.48 62.53 61.83 61.44 61.14 61.09 60.50
63.50 62.97 63.06 63.14 63.21 63.75 64.71 62.74 62.75 63.38 62.47 63.32 59.41 47.59 47.95 52.12 62.79 61.47 60.62 60.53 61.10 60.44
63.19 62.81 62.49 62.41 63.56 64.57 62.97 62.05 62.86 63.01 62.25 63.27 60.59 47.41 47.77 56.28 60.96 60.74 59.71 59.56 59.12 58.94
63.37 63.21 62.94 63.43 63.65 64.65 65.36 62.55 62.52 61.95 62.40 56.12 60.79 46.14 47.41 57.17 61.24 59.83 59.39 59.33 58.30 50.59
64.13 63.74 63.83 64.11 64.14 64.28 64.28 63.39 62.89 61.80 62.72 61.82 59.26 56.97 46.14 50.85 61.27 60.21 58.42 57.23 56.51 53.52

GFSNIL_sfc_wetblb_033.txt.gz
Wetbulb
74.18 72.85 72.53 71.53 69.91 69.63 69.53 70.73 72.41 72.26 72.79 71.93 71.28 70.59 70.87 69.12 68.14 68.85 66.69 67.19 67.01 66.02
72.85 74.55 71.97 73.59 74.00 71.93 73.69 71.88 71.84 71.98 71.38 70.83 70.29 70.20 70.22 67.62 67.16 68.40 68.36 67.46 67.11 67.43
73.07 73.46 72.54 73.24 70.58 71.24 72.77 72.60 71.49 70.73 70.62 70.01 69.48 68.93 68.59 67.90 67.52 67.34 69.05 67.82 66.86 67.20
70.69 70.96 71.38 70.85 71.10 71.22 71.93 70.54 69.71 69.22 68.81 68.17 67.62 67.69 67.81 67.86 67.04 66.22 66.95 67.01 66.30 66.03
70.89 70.91 71.35 70.21 70.13 70.07 69.55 69.60 68.76 68.02 67.14 66.28 66.29 67.27 67.06 66.53 66.30 65.75 65.48 65.60 66.06 65.18
69.53 70.37 70.64 69.47 69.60 69.10 68.32 67.56 66.91 66.18 65.64 65.64 66.35 66.72 67.47 66.47 66.34 66.28 65.33 65.09 65.63 65.11
69.06 69.23 68.85 68.72 68.28 67.63 66.99 66.07 66.00 66.34 65.92 65.79 65.85 66.36 66.73 66.61 65.71 65.96 64.67 66.90 66.59 65.59
68.42 68.42 67.75 67.06 66.87 66.59 66.29 66.11 65.99 65.87 66.16 66.05 67.29 65.40 66.64 66.68 65.81 65.79 65.42 66.06 65.90 67.10
66.05 65.94 66.12 66.37 66.55 66.20 65.56 66.57 66.33 65.53 65.56 66.63 64.29 49.72 51.59 60.64 65.69 64.86 64.15 65.14 65.83 66.02
65.81 64.37 64.89 65.04 65.19 65.13 66.53 66.87 66.43 66.00 65.73 66.20 64.14 49.36 50.86 55.03 64.88 65.43 64.86 65.12 65.48 65.50
63.70 63.64 64.32 64.69 64.58 66.46 66.52 66.84 66.28 66.12 66.53 66.39 61.30 49.41 49.59 53.22 64.37 63.98 64.04 64.13 64.92 65.43
63.77 63.39 63.10 63.49 64.82 65.90 66.02 66.41 66.33 66.38 66.34 65.89 62.89 48.87 51.22 58.63 62.27 60.84 61.13 63.32 63.74 63.75
64.72 63.54 63.81 64.82 64.66 66.13 65.85 65.64 65.18 65.87 66.23 58.59 63.12 48.14 49.41 57.04 61.08 59.51 59.04 60.46 60.80 48.61
64.23 64.43 65.60 66.22 66.03 65.96 65.22 65.70 65.89 65.45 65.56 64.32 62.48 58.70 48.87 51.22 60.98 60.45 60.06 58.01 59.52 60.48

GFSNIL_sfc_wetblb_036.txt.gz
Wetbulb
71.92 73.53 74.32 71.92 70.02 68.91 68.35 68.83 69.47 70.03 69.59 70.10 70.30 70.77 70.10 68.89 67.86 67.41 66.71 66.05 64.91 64.70
73.09 74.09 72.17 71.59 69.90 69.43 69.53 69.41 69.19 70.93 70.43 70.83 70.12 69.45 68.77 67.70 67.20 67.17 66.55 65.99 66.19 64.59
73.05 73.75 72.14 71.38 70.09 70.87 71.19 70.79 70.47 70.44 70.14 69.60 69.15 68.51 68.80 67.81 67.22 66.90 66.63 66.12 65.12 65.03
72.47 72.33 72.44 71.57 71.05 71.05 71.15 70.64 69.81 69.54 68.93 68.60 68.25 68.39 67.65 67.28 66.16 65.61 65.63 65.50 64.11 64.87
69.49 69.51 69.69 69.53 69.35 69.93 69.86 69.89 69.16 68.80 67.79 67.40 67.08 67.64 66.96 66.03 65.65 64.81 65.00 64.72 64.26 64.35
68.75 67.83 67.58 67.59 69.47 69.66 69.49 69.31 67.59 67.38 66.63 65.70 65.79 65.64 66.89 66.36 65.62 65.00 64.67 64.46 63.66 64.21
67.37 67.69 67.79 68.82 68.76 68.21 67.87 67.19 66.69 66.76 65.62 66.01 65.38 66.29 66.02 65.86 65.06 65.12 64.08 65.10 64.05 64.04
67.18 67.40 68.13 67.63 67.41 67.38 66.90 66.52 66.07 66.19 65.03 66.10 63.14 63.69 65.50 66.64 65.46 64.39 63.28 64.24 64.60 64.19
67.19 66.84 66.93 66.76 65.26 66.83 66.66 66.43 64.37 64.63 64.73 64.93 62.14 49.33 51.89 60.80 65.20 64.46 64.05 62.82 63.86 62.03
65.50 64.58 64.11 64.80 64.73 66.28 65.99 65.40 64.48 64.18 64.63 64.02 60.51 48.99 50.62 54.75 64.88 65.23 64.13 64.08 63.67 64.01
63.90 63.73 64.31 64.08 64.64 65.78 65.83 66.07 65.74 65.38 65.02 63.07 57.93 48.99 50.98 55.15 64.22 64.79 64.43 64.53 64.03 63.91
64.15 63.44 63.14 63.68 64.39 65.70 65.13 65.14 65.52 65.68 65.39 62.63 59.90 48.81 51.89 58.49 61.87 62.36 62.40 61.15 60.49 63.27
63.92 63.69 63.63 63.44 64.66 65.69 65.54 65.70 65.41 64.69 64.87 56.96 60.55 47.90 50.26 56.96 59.38 58.56 58.49 61.03 59.17 49.84
63.47 63.20 63.57 64.39 65.23 64.81 65.64 64.76 64.43 64.35 64.19 63.23 60.80 56.40 49.35 51.89 61.17 60.07 59.38 58.71 58.76 55.15

GFSNIL_sfc_wetblb_042.txt.gz
Wetbulb
62.38 62.50 62.33 63.88 65.77 66.21 66.89 66.10 66.48 66.66 66.61 66.77 66.66 66.46 66.62 65.66 65.17 64.21 62.46 61.98 61.79 61.63
63.01 62.29 64.42 65.78 65.73 65.98 65.61 66.37 65.60 65.99 66.12 66.51 67.82 67.42 66.46 64.67 64.03 63.96 61.42 60.96 60.21 59.13
64.24 63.98 65.54 66.27 66.07 66.16 66.02 66.77 65.56 65.58 65.87 67.33 67.49 66.75 65.63 63.89 64.43 63.50 60.63 60.57 59.58 59.39
66.07 66.38 66.30 66.48 66.27 66.16 65.65 65.69 65.90 65.69 66.30 66.53 65.56 64.39 63.77 63.99 63.05 61.76 60.36 60.16 60.00 59.79
67.85 66.63 65.78 65.62 66.37 66.73 65.28 65.73 66.61 66.77 66.57 66.55 65.63 64.51 63.60 61.81 61.71 60.74 60.21 60.00 60.08 60.42
67.38 66.99 65.96 67.20 67.40 66.79 66.34 66.03 66.75 66.30 65.65 65.62 65.33 63.99 62.44 61.60 61.20 60.90 60.46 60.56 60.37 60.05
66.95 67.27 66.97 67.92 67.65 66.80 66.75 66.42 65.61 65.47 65.29 64.95 63.91 62.25 61.89 61.03 60.54 60.54 61.08 61.46 61.50 61.78
66.13 66.24 65.96 65.62 65.12 64.89 64.61 64.29 62.81 62.03 61.44 61.98 62.08 61.99 62.41 61.98 60.79 59.93 59.99 61.05 61.62 62.44
65.12 64.63 63.38 62.50 61.60 61.76 60.06 61.26 60.68 59.86 59.93 59.49 58.58 48.63 54.01 58.69 59.96 60.23 59.62 58.70 59.53 59.83
63.82 63.07 62.37 61.36 60.30 59.21 59.22 60.16 59.79 59.84 58.97 56.97 55.18 47.54 49.15 53.52 59.80 59.04 58.92 58.83 59.35 61.04
63.05 61.89 60.28 60.73 59.59 59.72 61.52 61.49 60.79 58.98 56.97 55.62 54.64 47.90 49.70 53.89 60.26 59.31 58.62 59.80 61.16 60.47
61.20 59.40 61.34 61.26 61.17 61.37 61.98 60.69 58.07 56.79 56.06 56.87 56.75 47.54 49.54 56.24 58.27 57.27 56.85 59.34 60.75 60.50
61.28 61.40 61.19 61.42 61.13 60.58 59.18 59.86 59.41 57.73 56.51 53.14 56.26 46.45 47.72 54.80 58.57 57.89 56.79 56.22 56.33 51.86
61.68 61.16 61.40 61.01 60.55 58.87 60.16 59.72 58.01 56.85 55.92 57.07 56.73 52.95 46.09 50.08 57.41 57.57 57.44 55.93 55.98 53.96

GFSNIL_sfc_wetblb_045.txt.gz
Wetbulb
60.39 59.75 59.61 59.30 61.08 62.12 63.49 63.89 66.05 66.98 66.73 66.26 66.56 65.93 65.46 65.74 64.97 64.48 64.06 63.56 63.14 62.16
59.29 59.32 59.57 60.37 62.67 63.54 63.92 64.81 65.53 65.86 66.13 66.29 66.20 65.64 64.62 64.81 64.61 64.40 62.77 61.00 60.05 59.03
59.81 60.33 60.89 62.42 63.51 63.97 64.07 65.29 65.68 65.61 65.55 65.61 65.79 65.75 65.84 64.98 64.33 61.83 61.61 61.48 59.21 58.45
61.00 61.38 63.35 64.40 64.23 64.77 64.95 65.34 65.46 65.55 65.19 65.55 65.39 65.82 65.10 64.09 62.96 62.67 61.19 59.66 59.17 58.67
63.20 63.95 64.19 64.34 64.25 64.61 64.41 65.52 65.94 66.56 66.47 66.07 65.83 64.75 63.43 62.32 62.52 60.98 59.57 59.29 59.03 59.00
64.41 64.37 63.98 64.45 65.01 65.43 65.56 66.54 66.72 65.89 65.80 65.85 64.30 63.27 63.11 63.04 61.51 60.24 59.86 59.51 59.11 59.28
65.00 65.07 65.22 65.78 66.31 65.56 66.02 65.56 65.46 65.47 65.25 65.16 64.47 63.94 62.85 62.11 59.97 59.76 59.74 60.15 59.99 59.65
65.85 65.86 66.83 66.71 66.29 65.64 65.71 65.54 65.20 64.08 63.81 63.50 63.16 62.30 60.56 60.11 59.17 58.80 59.15 59.66 60.69 60.71
65.50 65.66 66.00 65.82 64.55 64.08 62.36 63.06 62.87 61.71 61.60 59.57 58.76 50.66 53.93 58.65 59.43 59.26 58.81 58.66 59.30 59.48
63.70 62.80 62.96 62.69 62.26 61.71 60.81 59.77 58.93 57.62 57.44 56.14 55.19 47.21 49.37 53.12 59.06 58.58 57.98 57.84 57.96 58.80
62.48 61.18 61.28 61.13 60.48 60.11 59.25 57.78 57.04 56.52 56.90 56.30 54.05 47.21 47.57 51.38 58.19 57.40 57.48 57.76 58.06 58.24
61.59 60.82 60.58 59.96 60.27 59.52 58.66 57.52 56.42 57.00 56.88 56.72 55.82 46.85 46.85 54.81 56.88 56.20 58.31 58.26 59.34 60.11
61.59 61.15 60.16 60.30 59.60 58.91 58.72 58.38 57.54 56.12 57.54 53.96 55.96 45.04 46.49 53.73 56.40 56.76 57.06 57.26 56.16 50.29
60.71 59.83 59.60 59.21 60.66 60.37 58.84 56.84 56.08 55.66 56.14 57.36 54.33 51.32 45.58 49.39 57.66 57.40 55.43 55.77 55.23 52.17

GFSNIL_sfc_wetblb_048.txt.gz
Wetbulb
64.28 64.92 64.08 63.41 60.97 60.66 60.99 62.91 65.20 66.74 66.88 66.81 66.84 66.46 66.52 66.22 66.11 65.64 65.10 64.48 64.20 63.88
60.62 61.11 59.97 59.77 60.37 60.81 62.72 64.00 65.56 66.95 66.70 66.90 67.13 67.13 66.68 66.15 65.62 65.80 64.65 64.63 64.15 63.18
59.01 60.05 60.31 59.76 60.76 62.42 63.40 65.45 65.85 66.22 66.90 67.04 67.31 66.82 66.21 65.75 65.72 64.38 63.88 63.53 62.76 61.62
58.19 59.31 60.11 60.68 61.69 63.32 64.30 65.60 66.18 66.81 66.81 66.95 66.59 66.52 65.98 65.80 64.78 63.49 63.43 62.80 61.96 61.42
58.50 59.83 60.79 61.95 63.20 64.53 65.24 66.03 66.48 66.68 66.70 66.76 66.43 66.03 65.57 64.41 64.12 63.76 62.24 61.67 61.26 60.99
59.56 61.19 61.99 63.18 64.24 65.33 65.51 65.89 66.55 66.61 66.92 66.52 66.05 65.88 64.99 64.61 63.77 63.23 62.25 61.83 61.37 61.29
62.01 62.83 63.71 64.60 65.30 65.60 66.34 66.28 66.57 67.03 66.36 65.97 65.23 64.92 64.55 64.08 63.32 62.20 62.24 62.12 62.17 61.79
64.06 64.72 65.29 65.25 65.51 66.18 66.50 66.57 66.25 65.63 65.94 65.43 64.88 64.15 63.84 62.69 62.13 61.58 61.34 61.69 61.92 62.42
65.23 65.90 65.56 65.27 65.42 65.58 64.97 65.01 64.90 64.72 64.50 64.17 61.59 50.87 53.46 59.47 61.42 61.17 61.32 61.19 61.63 62.39
65.92 65.28 65.40 64.98 64.17 63.39 63.20 63.96 62.98 62.09 62.21 59.74 56.75 47.97 49.24 52.30 61.88 61.48 61.17 61.13 61.33 61.22
64.47 64.33 64.00 63.56 62.73 61.95 61.28 60.29 59.56 58.81 58.09 57.29 53.70 46.34 46.70 50.51 61.03 60.82 60.53 60.77 60.91 61.50
62.46 62.18 62.19 61.56 61.03 60.15 58.83 57.93 57.33 57.83 58.07 57.21 55.85 45.79 45.79 55.33 59.49 58.89 59.56 59.93 60.72 60.66
62.00 61.96 61.50 60.91 59.32 58.66 57.98 57.35 57.75 57.77 58.52 54.10 56.33 44.89 45.79 55.11 58.61 58.00 58.60 59.75 58.06 51.05
61.57 61.44 61.25 60.34 59.17 58.32 57.71 57.11 56.45 56.39 57.57 57.17 55.49 51.43 45.61 48.87 59.11 58.38 58.23 58.07 57.03 53.91

GFSNIL_sfc_wetblb_051.txt.gz
Wetbulb
65.05 65.52 67.02 68.38 67.88 68.31 68.54 69.54 71.86 70.83 71.62 71.84 71.50 71.16 70.71 69.86 69.88 70.46 69.55 69.73 68.29 68.22
64.14 66.27 67.95 70.65 71.21 69.43 70.81 69.22 70.10 70.75 71.18 71.27 71.30 71.40 71.26 70.31 70.51 70.51 70.35 69.21 68.68 67.02
63.64 65.43 67.13 69.03 68.88 69.77 69.16 69.10 69.66 70.43 71.21 71.36 71.51 71.92 71.63 71.09 71.27 70.73 70.12 67.78 66.80 67.00
62.95 64.87 65.50 66.15 67.03 68.07 68.96 69.00 69.19 70.04 70.78 71.07 71.74 71.74 71.52 71.16 70.73 69.92 68.64 68.27 68.80 68.26
63.55 64.54 64.42 65.03 66.20 67.66 68.24 69.06 69.26 70.06 70.41 71.36 71.54 71.74 70.86 70.34 69.61 68.20 67.54 67.52 67.48 67.03
63.80 63.68 63.99 64.90 66.65 67.53 68.24 69.04 69.84 70.34 70.87 71.19 71.22 70.49 69.56 69.88 68.43 66.57 66.40 64.96 66.12 66.91
64.87 64.03 64.41 66.09 67.29 67.96 68.77 69.30 70.12 70.91 71.34 71.36 70.66 69.29 67.99 67.20 67.82 68.94 67.04 65.85 67.64 66.87
66.04 64.92 65.20 66.58 67.85 68.72 69.25 69.90 70.51 70.92 71.02 70.56 69.51 67.93 69.09 69.18 69.00 68.42 67.37 67.39 67.05 67.34
65.91 65.46 66.20 67.09 68.12 68.89 69.65 70.11 70.19 70.07 69.59 68.72 67.79 52.20 56.45 63.83 67.61 67.63 67.08 66.60 66.64 66.79
66.16 65.99 66.12 66.54 67.71 68.19 68.45 69.01 69.11 67.41 67.69 68.24 63.56 48.98 50.79 54.84 67.23 66.66 66.81 66.79 66.68 66.04
66.64 66.23 66.43 67.28 68.38 68.36 69.07 69.18 68.22 67.70 67.17 63.83 55.97 46.80 47.17 50.97 66.71 66.64 66.74 66.51 66.76 66.70
66.46 65.50 66.70 67.16 67.40 67.02 65.13 65.98 64.48 62.21 61.91 61.58 58.82 45.32 46.26 57.11 66.21 65.53 65.39 65.45 66.03 66.15
66.41 65.92 66.15 66.09 64.94 65.13 64.42 62.09 63.00 63.09 63.97 56.61 58.93 44.26 46.08 58.91 64.24 63.39 62.45 62.82 63.13 50.72
66.37 65.99 64.83 64.25 62.69 61.72 61.51 61.76 61.38 60.48 60.54 61.08 59.96 54.82 45.53 49.70 64.10 62.77 61.41 62.47 61.47 60.67

GFSNIL_sfc_wetblb_057.txt.gz
Wetbulb
67.36 64.23 65.48 68.75 68.54 69.81 71.60 73.54 77.11 77.80 76.37 77.54 77.70 77.43 77.80 75.82 75.07 75.54 74.21 75.19 74.52 70.67
66.30 67.02 66.38 69.80 72.23 68.82 71.35 71.62 74.86 78.05 76.90 77.40 77.08 77.23 77.45 74.88 75.70 75.33 75.20 74.76 75.54 73.03
64.47 66.15 67.29 69.02 70.26 70.87 72.55 72.75 72.37 74.67 75.93 75.62 76.35 76.59 76.59 75.71 76.07 74.72 73.68 72.93 74.07 73.15
63.11 63.38 66.01 67.44 69.56 70.24 72.67 73.71 73.88 72.51 73.59 74.90 75.11 75.72 76.35 75.25 74.32 73.91 74.44 74.21 73.42 73.12
63.37 64.15 65.68 66.88 68.28 70.39 71.54 72.68 72.62 72.88 73.03 73.24 74.83 75.62 75.04 73.25 72.50 73.25 72.37 72.91 72.72 72.01
64.29 65.02 65.31 66.27 67.90 70.10 70.52 71.32 72.03 72.10 72.34 72.95 73.94 74.07 74.51 73.17 72.56 73.08 73.01 73.28 72.62 71.29
63.92 65.00 65.43 66.93 67.67 68.65 69.70 70.10 70.32 72.56 72.31 72.88 72.97 73.21 73.25 73.37 73.69 73.53 73.10 73.03 71.77 71.17
63.36 64.22 63.56 64.99 66.91 68.32 69.82 69.71 70.01 70.95 71.83 73.44 73.34 72.30 73.90 73.92 74.01 73.54 72.89 72.86 71.51 71.73
61.19 62.07 64.19 66.55 67.33 68.85 70.04 70.57 71.00 71.25 71.52 72.94 71.15 57.38 58.37 69.71 73.11 72.07 71.39 70.49 70.41 70.54
60.51 60.99 62.08 64.13 65.75 68.08 70.56 72.01 72.02 72.21 72.69 73.53 73.55 53.65 55.13 59.61 72.41 71.90 71.87 70.94 70.48 68.80
59.36 60.49 61.63 64.89 65.37 68.77 71.27 72.18 73.05 73.66 73.63 74.25 69.27 51.30 52.26 56.70 71.57 70.82 70.29 69.90 69.60 69.37
58.70 60.13 62.20 63.83 66.22 69.43 71.29 72.21 73.10 73.62 73.60 71.96 66.27 49.11 52.05 60.58 69.97 69.07 68.67 68.73 68.60 68.09
59.11 60.88 63.46 65.45 67.74 69.83 71.64 72.29 72.34 71.42 72.71 63.61 68.06 46.92 50.43 58.16 68.10 68.02 66.70 68.09 67.81 54.71
59.54 62.64 64.65 67.51 69.31 70.39 71.10 68.98 68.53 69.27 68.93 68.74 66.30 59.64 46.75 49.11 66.76 66.43 66.09 65.41 66.00 65.12

GFSNIL_sfc_wetblb_060.txt.gz
Wetbulb
64.92 65.89 65.02 65.19 65.33 66.42 68.10 67.00 66.55 68.75 67.44 65.06 65.90 66.55 66.85 68.58 73.79 74.65 74.38 72.84 73.42 70.85
65.50 65.31 63.81 65.27 66.70 66.58 69.15 68.66 69.08 69.44 67.87 66.99 68.83 71.78 71.16 73.58 73.93 74.46 74.05 73.23 72.47 72.81
63.57 64.44 64.92 65.81 65.53 65.99 66.73 67.45 69.59 69.00 72.02 72.78 73.17 73.65 74.86 74.35 74.48 73.88 73.49 72.79 72.13 71.77
62.25 63.78 64.58 64.43 64.65 64.88 67.43 68.28 68.92 69.05 70.56 72.50 73.99 74.52 74.25 74.13 73.88 73.41 72.48 71.97 71.15 71.56
62.59 63.71 63.78 63.06 64.11 66.79 66.32 68.38 68.70 69.79 70.20 69.85 69.93 72.61 73.71 73.66 73.65 72.52 71.18 71.23 71.08 71.30
61.85 63.32 63.07 63.78 64.26 65.00 65.45 66.51 68.11 69.29 69.66 70.75 71.46 72.34 73.62 73.90 72.93 71.55 71.50 71.56 71.28 71.16
62.16 63.26 64.11 64.64 63.81 63.51 64.23 65.05 67.15 68.85 69.81 70.76 70.68 72.03 73.47 73.23 71.41 71.20 72.10 72.08 72.13 71.73
62.25 63.69 62.82 62.42 62.90 63.29 63.70 65.30 66.41 67.40 69.11 69.79 70.90 71.92 72.21 71.97 71.51 71.98 71.63 72.45 72.19 71.23
59.62 60.44 61.41 61.22 62.67 62.52 62.94 64.29 66.46 67.22 67.82 68.92 70.08 60.63 59.87 68.06 71.67 72.40 71.38 70.75 70.60 67.71
57.46 58.84 59.62 60.55 60.94 61.96 63.74 63.71 64.96 67.66 68.20 68.34 70.39 51.20 55.07 59.63 72.07 71.63 71.01 70.47 69.93 67.64
56.57 57.22 58.29 59.46 60.41 61.47 62.81 64.14 65.74 67.59 68.82 68.89 68.98 50.67 52.18 58.05 71.26 70.61 70.21 70.44 69.49 68.71
54.83 56.51 57.50 57.75 60.19 61.82 62.39 63.07 66.25 67.83 69.44 69.18 63.51 49.98 51.88 63.82 70.20 69.44 69.40 69.20 69.11 68.12
56.35 56.67 56.82 58.14 60.04 61.11 63.59 65.14 66.36 67.16 69.81 63.46 65.15 47.76 51.75 63.08 69.00 67.71 66.71 67.50 62.93 54.59
56.61 56.82 57.17 58.70 61.10 62.26 63.01 65.15 64.83 67.21 68.85 68.50 64.01 56.30 48.14 53.51 67.48 66.52 65.89 64.96 65.89 60.72

GFSNIL_sfc_wetblb_063.txt.gz
Wetbulb
58.64 60.73 60.52 61.82 61.88 61.13 64.91 64.73 64.81 65.20 66.65 67.16 66.24 63.39 64.01 64.37 63.22 63.14 62.17 60.82 60.98 62.27
57.27 58.50 59.21 59.27 60.99 62.32 63.80 66.41 66.98 66.33 67.21 66.67 66.08 64.75 64.19 64.14 63.73 62.46 64.39 67.43 67.99 65.17
56.74 57.33 58.52 59.44 60.46 60.52 59.90 61.44 63.27 66.28 66.53 66.42 67.13 67.23 65.82 65.15 65.62 65.31 64.86 66.55 70.80 71.02
54.55 56.30 57.73 59.17 60.09 61.65 62.22 62.60 64.24 65.36 65.42 67.11 67.29 67.36 66.69 65.53 65.77 67.29 67.91 70.88 71.22 70.80
56.10 56.79 57.49 57.69 58.69 60.65 61.13 62.34 63.93 65.50 65.98 66.97 67.97 69.01 66.98 67.27 69.56 70.48 70.80 71.09 70.28 70.10
54.39 55.03 55.67 57.53 58.23 57.95 58.59 60.39 60.98 62.54 63.71 65.56 67.29 67.87 71.21 71.82 71.64 71.51 71.29 70.95 69.21 69.49
52.78 55.70 57.02 58.07 59.12 59.30 60.03 60.28 60.75 61.85 63.56 65.86 67.32 68.26 68.61 69.64 71.32 71.98 70.53 70.42 69.51 68.77
53.10 55.28 57.55 58.06 59.34 60.28 60.29 60.95 60.90 60.89 61.61 63.61 66.05 67.96 67.97 70.22 71.17 71.37 68.50 69.74 69.99 69.31
53.50 54.58 54.44 56.42 56.65 58.11 58.75 59.88 60.16 60.33 62.09 63.09 64.98 59.14 56.58 64.06 70.50 67.90 68.48 68.57 68.14 67.75
52.18 53.06 54.60 55.21 56.48 56.22 56.06 58.36 59.15 59.91 60.38 62.24 64.47 55.72 53.53 55.26 70.02 68.44 67.63 67.86 65.57 64.71
51.37 52.20 53.59 54.77 53.97 53.81 55.24 56.23 59.33 60.79 61.05 61.30 63.83 55.44 50.72 52.92 68.65 67.68 66.94 67.16 64.86 64.08
51.43 51.30 52.18 52.42 52.57 52.73 55.16 56.60 57.37 59.74 61.48 63.54 64.79 51.52 48.53 52.55 67.70 66.29 66.00 67.10 65.73 64.82
51.17 51.69 51.30 51.85 52.28 52.58 54.07 56.39 57.86 59.35 61.71 60.48 64.01 52.65 46.89 55.09 67.05 65.54 65.25 63.53 61.78 56.98
50.99 51.39 52.07 52.91 53.57 52.24 54.55 56.73 57.81 59.36 60.68 62.42 63.32 55.07 49.02 51.74 66.11 65.28 64.45 62.08 59.95 57.05

GFSNIL_sfc_wetblb_069.txt.gz
Wetbulb
54.99 56.84 57.66 58.08 58.06 58.77 60.45 62.09 63.53 63.61 64.14 64.79 67.05 66.94 66.38 66.28 66.26 66.36 66.38 66.01 66.34 65.51
53.30 53.94 55.12 55.80 55.95 56.91 57.20 59.08 60.23 62.45 62.55 63.07 63.63 65.82 66.22 66.19 66.36 65.95 65.67 65.63 65.67 64.22
52.93 53.23 52.78 52.94 53.23 53.83 55.31 57.29 58.47 58.94 61.06 62.04 63.18 63.80 63.36 63.62 64.65 63.51 64.26 64.47 63.28 62.36
49.64 50.90 51.87 51.92 52.29 53.23 54.12 55.52 56.59 57.64 58.90 61.24 62.19 62.72 63.26 62.83 63.58 63.25 63.26 63.21 63.20 62.50
48.05 48.80 49.45 49.99 51.18 52.22 53.00 54.70 57.07 58.42 59.67 60.95 61.71 62.34 63.58 64.08 65.25 64.47 64.20 64.32 64.79 64.47
49.10 49.61 49.87 50.55 51.47 52.04 52.88 54.03 55.18 57.14 57.87 59.55 61.12 61.96 62.90 64.48 65.67 65.17 65.56 65.45 65.67 65.67
48.91 49.27 49.34 50.48 51.73 52.70 53.69 54.08 53.94 54.52 56.08 57.62 58.28 59.19 59.75 60.46 61.19 63.42 65.06 66.54 66.99 67.68
46.63 47.68 49.81 51.67 53.04 54.06 54.92 55.70 56.03 56.20 56.37 57.24 58.06 59.10 58.08 58.31 58.75 60.71 63.37 65.27 67.48 68.92
49.49 50.53 50.82 51.03 51.26 51.53 52.28 52.55 53.14 54.60 56.37 56.36 58.17 53.60 51.72 54.32 57.10 59.31 60.44 61.79 65.14 66.90
49.70 49.65 49.34 49.70 49.61 49.49 49.22 49.76 50.29 51.46 52.83 53.78 54.89 50.67 49.26 50.58 54.90 57.76 59.05 60.92 63.10 65.01
49.26 49.46 49.37 48.68 47.94 47.54 47.22 48.12 48.46 49.16 50.64 51.91 54.55 49.73 48.10 48.89 52.81 56.12 58.08 59.81 61.43 64.30
49.43 49.13 48.98 48.71 48.62 46.64 47.19 47.17 47.74 49.49 50.35 50.94 52.64 49.17 48.09 49.74 56.00 57.29 57.97 60.63 62.83 65.25
49.23 49.06 48.34 48.56 48.10 46.58 47.43 48.77 49.07 49.23 49.74 51.03 53.06 49.38 47.56 49.41 55.66 55.88 58.45 60.64 63.00 53.69
48.53 48.55 48.56 48.20 47.95 47.27 45.97 47.09 47.70 49.05 50.66 52.37 53.59 53.96 47.19 45.17 54.37 57.32 58.83 61.05 62.85 60.48

GFSNIL_sfc_wetblb_072.txt.gz
Wetbulb
58.37 58.44 58.79 59.34 60.93 62.61 63.51 64.23 65.45 65.40 65.94 66.47 67.97 68.02 68.13 67.25 67.19 67.32 66.83 66.74 66.42 67.48
55.12 55.99 56.65 57.64 58.04 57.82 59.06 60.82 62.19 63.06 63.58 64.31 64.87 66.68 67.66 67.05 66.87 67.14 67.10 67.08 66.15 65.51
53.57 54.44 54.95 54.90 55.60 56.66 57.08 58.21 60.23 61.87 62.66 62.88 63.90 64.45 65.20 65.28 66.00 65.91 66.27 66.85 65.98 65.39
52.60 53.75 53.61 53.49 53.78 53.99 54.76 56.42 57.60 58.51 59.02 60.55 62.04 63.43 63.83 63.78 63.87 64.10 64.01 64.87 64.63 64.09
51.31 51.34 52.06 52.50 53.18 53.73 54.34 55.45 56.79 58.23 59.82 60.69 61.52 62.21 62.55 63.04 64.74 64.27 63.87 64.59 64.91 64.70
49.38 49.32 49.81 50.52 51.73 52.49 53.30 54.22 55.78 57.49 58.28 59.19 60.50 61.04 62.15 63.27 64.10 64.50 65.01 65.36 65.74 65.63
49.16 49.45 49.91 51.34 52.69 54.01 54.94 55.47 55.94 56.70 57.47 58.29 59.05 60.04 60.30 60.75 61.41 62.30 63.35 64.45 65.96 66.44
50.81 50.34 50.77 51.18 52.64 54.15 55.27 56.09 56.92 57.26 57.62 58.13 58.89 59.16 59.77 60.12 60.40 60.20 60.42 62.32 63.94 66.04
48.93 49.18 50.18 51.74 53.20 54.11 54.47 54.93 55.82 56.56 56.79 56.75 57.43 52.03 50.88 55.17 58.49 59.49 60.09 59.78 61.04 62.81
50.23 50.48 51.35 52.19 52.06 51.95 51.84 52.08 52.05 52.53 53.81 54.51 55.46 49.67 48.02 49.31 56.06 57.20 57.68 58.71 59.96 61.18
49.60 49.96 50.47 50.26 49.92 49.95 49.93 50.13 50.38 51.02 52.04 52.55 53.32 48.54 46.77 47.84 54.99 56.18 57.26 58.91 60.09 60.71
48.81 49.29 49.57 49.43 49.21 48.96 48.50 48.47 49.18 50.73 51.30 51.93 52.76 47.10 45.96 47.88 55.00 56.62 57.97 59.98 60.94 61.59
48.10 48.48 48.71 49.39 49.48 48.63 48.99 49.51 50.07 50.37 50.86 49.84 51.53 46.28 45.39 47.57 54.29 56.43 58.08 59.91 61.30 51.50
47.12 47.56 48.54 49.34 49.55 48.98 47.92 49.19 49.23 49.94 50.34 50.77 51.25 52.11 45.76 45.48 52.70 56.07 57.63 58.66 59.98 62.19

GFSNIL_sfc_wetblb_075.txt.gz
Wetbulb
71.74 70.64 70.59 70.71 70.25 70.50 70.32 70.75 72.13 71.72 71.47 71.65 71.74 71.71 70.90 68.49 67.39 64.95 64.04 65.94 67.12 68.47
66.57 66.91 66.38 68.03 69.05 68.95 70.17 69.79 70.30 70.60 70.74 70.93 71.24 71.78 71.91 71.41 69.49 68.58 65.98 67.32 69.63 69.82
64.80 65.29 65.80 66.02 66.07 66.55 66.46 66.14 66.39 66.69 67.70 67.95 68.56 69.20 70.22 69.75 70.20 68.90 69.82 69.93 69.80 69.53
62.25 62.77 63.29 63.59 63.93 63.93 64.24 63.77 63.81 64.87 65.74 65.36 66.03 67.34 68.12 68.02 67.58 67.34 67.76 68.18 67.39 66.94
61.60 61.67 61.85 61.88 62.25 62.49 62.17 62.55 62.73 62.99 63.14 63.55 64.43 66.40 66.03 65.08 65.13 65.24 65.00 64.60 65.95 65.34
59.04 60.41 61.63 61.70 61.80 61.63 61.56 61.56 61.70 62.02 62.81 63.22 63.54 64.37 65.10 64.58 64.23 64.62 64.64 64.45 64.55 65.32
58.24 58.60 59.54 60.60 60.47 60.26 60.47 60.46 61.05 61.76 61.85 62.68 63.20 63.08 63.33 63.55 63.81 64.03 63.56 64.66 65.59 64.87
59.23 59.44 58.59 58.61 59.34 59.78 60.57 61.09 61.47 61.80 62.45 63.11 63.17 62.80 63.78 63.95 63.92 63.74 63.77 64.40 64.53 64.49
56.06 57.50 57.99 58.26 58.78 59.98 60.67 61.31 61.59 61.90 62.08 62.23 60.50 51.66 52.80 56.98 60.75 60.61 61.66 62.80 63.86 64.10
54.15 54.88 56.13 57.10 57.59 58.97 60.31 61.39 60.99 60.80 60.08 59.96 59.92 49.96 49.35 50.08 59.31 59.67 60.23 61.12 62.38 62.59
51.89 52.42 55.37 56.01 56.87 58.65 59.77 59.27 58.87 58.43 58.57 58.62 58.28 48.36 46.83 47.66 58.09 58.33 58.98 60.02 61.68 62.90
51.07 51.38 52.97 54.74 56.44 57.89 57.57 57.60 57.53 57.52 57.65 57.45 57.77 46.26 45.12 49.55 56.70 56.26 57.22 58.57 60.71 62.60
51.34 51.60 51.98 53.50 54.72 56.54 56.72 56.54 56.29 56.31 56.97 53.78 57.01 46.36 44.13 49.44 54.92 55.30 55.94 58.27 60.71 52.11
50.68 51.09 52.37 54.29 55.12 55.40 54.71 55.30 55.83 55.30 56.23 56.54 55.79 55.85 43.71 43.68 55.02 54.81 55.18 56.09 58.78 60.68

GFSNIL_sfc_wetblb_078.txt.gz
Wetbulb
73.09 72.87 73.26 74.66 73.26 72.91 72.44 73.99 76.74 74.80 74.85 75.13 75.06 74.99 74.95 73.77 72.49 72.63 70.62 69.63 68.32 66.70
73.58 73.83 73.46 75.56 75.99 73.89 75.33 72.42 74.39 75.01 74.69 74.55 74.38 74.46 74.40 72.96 72.65 72.23 70.81 69.49 68.64 67.33
72.24 73.36 73.69 74.01 73.74 73.56 72.79 72.45 72.98 73.60 73.78 73.53 73.44 73.52 73.61 73.42 72.94 71.69 68.94 68.44 68.76 70.31
71.55 71.77 71.06 69.83 69.08 68.93 69.92 69.21 69.00 69.61 70.35 70.79 71.17 72.13 72.04 71.84 71.14 71.01 71.07 71.27 70.21 69.87
67.99 67.50 66.60 66.08 66.75 67.32 66.97 66.90 66.15 66.34 66.70 67.12 67.35 68.67 68.89 68.72 68.72 68.95 68.65 68.84 68.25 67.37
64.05 64.39 64.77 64.80 65.34 65.01 64.30 63.92 63.58 63.51 63.27 63.36 64.39 66.08 66.26 65.41 65.28 65.48 65.28 65.15 65.11 64.94
62.23 63.04 63.59 64.15 64.14 63.43 63.18 62.86 63.08 63.44 62.86 63.10 63.78 64.42 64.72 64.61 64.96 64.89 64.70 64.93 64.94 64.16
61.19 61.08 62.22 63.52 63.48 63.18 62.80 62.46 62.25 62.42 62.42 62.69 62.90 62.54 63.65 63.99 64.32 65.08 64.69 64.87 64.48 64.83
58.60 61.09 61.26 62.18 62.61 62.77 62.29 62.42 62.11 61.80 61.55 62.49 61.47 52.49 55.84 61.75 64.62 64.54 63.81 62.71 62.29 63.21
54.89 56.39 59.64 61.19 61.34 61.63 62.47 64.46 63.45 62.70 62.73 63.13 63.50 49.71 50.54 52.44 62.97 62.23 62.18 62.02 61.58 61.09
53.19 53.98 56.13 59.40 60.62 62.80 62.88 64.14 63.96 64.18 63.90 63.92 62.44 47.91 47.10 49.14 61.14 61.17 61.20 61.49 61.55 62.04
50.75 51.39 53.75 57.11 59.24 60.99 62.42 63.30 63.88 63.42 63.41 63.00 61.64 46.33 45.26 50.83 59.14 59.78 60.22 60.48 61.07 61.35
53.20 52.28 52.21 54.25 58.26 60.31 61.25 61.79 62.13 61.91 62.27 57.85 61.38 45.13 43.99 49.91 57.40 58.55 58.34 60.55 60.96 50.66
54.09 54.50 55.90 57.46 57.68 58.82 58.96 60.13 60.59 60.41 61.03 60.96 59.71 58.07 44.17 43.62 56.88 57.08 57.25 57.93 58.34 59.14

GFSNIL_sfc_wetblb_084.txt.gz
Wetbulb
64.93 67.69 68.90 70.21 70.63 70.27 70.18 70.41 72.31 72.98 72.63 72.99 73.31 73.29 72.92 72.23 71.81 72.35 70.99 70.69 69.78 69.65
65.08 64.44 67.44 70.09 70.98 71.19 71.58 71.71 71.59 72.75 72.61 72.75 72.95 73.23 72.58 71.69 71.34 71.48 71.45 71.01 71.10 70.02
64.04 64.27 65.34 69.27 70.14 70.72 70.90 71.80 71.74 71.79 72.70 72.70 72.67 73.08 72.41 71.84 71.92 72.25 71.91 71.30 69.79 69.70
61.55 64.21 63.97 66.69 68.88 70.29 70.09 71.24 71.26 72.17 72.58 71.67 72.24 72.28 71.62 71.25 71.44 70.39 70.19 70.31 70.30 69.37
60.46 63.32 64.30 65.75 67.87 69.29 69.35 70.41 71.17 65.31 67.17 71.03 69.22 67.02 68.58 68.94 70.61 70.10 70.31 69.92 70.17 69.01
59.42 61.28 62.34 64.17 66.95 69.41 69.24 69.92 64.78 62.64 61.12 59.50 60.47 60.86 63.33 67.95 69.90 69.53 70.17 70.04 69.61 68.90
58.39 60.40 59.38 62.73 65.78 67.48 68.45 65.90 59.76 59.63 59.85 60.37 58.08 58.52 64.20 68.36 68.75 68.55 68.94 69.01 68.51 67.71
58.33 59.43 59.40 60.22 62.72 65.49 61.34 60.43 62.85 59.53 59.83 64.36 58.91 63.76 65.22 65.69 65.69 67.19 66.97 67.31 67.02 66.98
55.98 57.37 57.68 58.19 58.12 56.58 58.86 57.77 60.10 63.12 59.25 59.24 65.16 55.88 55.65 62.45 64.91 65.49 64.65 63.81 64.24 62.24
52.68 54.87 56.94 56.89 56.38 56.38 57.31 60.96 62.50 61.62 61.64 61.84 61.31 51.98 52.04 57.06 64.43 64.53 64.25 63.76 64.10 61.17
51.97 51.89 55.28 56.24 56.02 56.48 55.87 58.15 63.17 62.63 62.01 62.18 60.97 49.52 50.06 54.63 64.94 64.60 64.99 64.33 63.01 61.59
51.09 51.55 52.30 55.66 55.97 57.37 54.87 55.65 63.56 64.32 63.82 62.48 56.01 46.65 49.11 57.65 63.96 62.79 62.49 62.59 62.99 62.56
49.92 50.51 50.69 54.94 55.54 55.52 55.35 54.66 59.20 64.27 63.94 58.61 58.05 45.18 47.86 58.30 61.61 60.90 60.71 61.67 62.01 51.76
48.08 48.89 51.93 50.73 57.16 53.86 54.82 55.59 56.30 60.47 64.11 61.41 56.80 51.08 45.27 50.02 59.89 59.61 59.04 59.12 60.21 60.44

GFSNIL_sfc_wetblb_087.txt.gz
Wetbulb
58.85 59.25 59.28 60.02 61.60 65.74 67.02 67.94 69.69 69.04 69.50 68.70 68.22 68.70 69.05 69.24 69.78 68.93 68.87 68.27 67.11 68.39
57.61 59.22 59.98 60.13 61.22 62.19 66.56 68.77 68.54 69.21 68.91 68.66 66.74 67.46 70.65 69.52 69.49 70.08 70.17 69.20 68.07 66.90
55.15 57.08 57.85 58.17 60.05 61.22 63.04 67.54 68.52 68.98 69.28 68.76 69.00 69.87 70.83 70.49 70.09 69.51 70.33 69.58 68.87 68.11
54.23 56.34 56.29 58.38 60.42 61.19 62.07 64.93 67.71 68.79 68.75 68.39 67.93 69.08 69.17 69.66 69.28 69.23 68.90 69.45 68.86 68.41
53.40 54.46 54.29 57.59 58.57 59.20 60.31 62.89 65.40 67.95 68.01 67.18 66.81 61.07 60.66 65.17 68.45 63.57 67.38 68.42 68.23 67.97
50.81 52.68 53.37 56.00 56.12 57.17 59.67 62.04 64.93 66.10 63.63 61.43 63.86 60.12 60.62 60.07 60.30 60.75 58.95 64.86 66.51 66.48
48.70 49.93 53.09 55.02 55.43 56.66 57.25 57.60 61.71 60.28 59.40 58.81 59.49 59.93 60.99 60.14 59.40 58.25 58.37 60.71 64.35 65.21
48.52 49.51 50.28 52.50 54.99 55.71 56.43 58.28 60.64 58.94 58.01 57.12 57.96 59.33 59.23 58.92 59.12 57.58 57.98 61.52 64.74 65.53
46.90 48.05 49.00 49.94 53.55 54.32 55.28 56.61 59.53 57.84 58.82 56.07 59.20 53.10 52.84 58.44 61.36 63.62 64.20 63.51 64.34 61.67
46.20 46.42 47.16 48.50 50.75 53.58 52.96 53.66 55.44 56.00 59.25 56.74 58.02 50.05 50.20 54.17 62.76 63.28 63.33 63.35 58.78 58.49
45.62 45.54 46.41 47.04 48.94 53.02 52.31 52.76 54.10 54.76 58.21 57.96 59.93 49.49 49.82 50.26 59.90 62.35 61.44 59.91 58.22 56.77
44.66 45.05 46.18 46.38 47.25 50.67 52.96 53.88 53.60 55.20 56.55 56.99 58.33 51.15 46.96 51.05 60.63 60.84 60.07 59.87 58.22 57.39
44.17 44.74 44.74 45.68 47.02 50.84 53.30 54.23 55.40 55.70 56.14 57.11 58.62 48.71 48.23 54.83 61.56 59.02 58.09 57.77 56.85 52.67
43.16 43.47 45.34 45.93 46.16 47.21 51.77 53.57 53.76 54.32 54.69 55.98 55.34 51.06 49.35 52.83 60.01 58.33 57.20 56.78 54.99 54.13

GFSNIL_sfc_wetblb_093.txt.gz
Wetbulb
50.07 50.93 51.59 52.90 54.28 54.93 55.98 58.07 59.63 61.21 62.52 64.17 65.57 66.71 67.54 67.65 67.18 66.89 64.94 63.60 62.92 62.13
48.52 48.79 49.73 51.33 53.77 55.55 56.02 57.99 57.65 59.27 59.89 61.05 63.49 65.43 66.22 66.46 66.44 66.08 65.54 65.16 63.72 61.55
47.18 47.98 48.52 49.08 50.65 52.82 55.37 56.01 57.70 58.55 58.21 57.64 59.06 60.96 63.63 65.25 65.88 64.01 64.16 63.57 63.08 62.64
46.07 46.61 47.24 48.40 50.56 51.66 52.99 55.78 57.69 57.19 56.77 57.17 58.11 59.54 60.87 62.49 63.82 64.36 63.45 63.10 62.37 61.85
45.43 46.10 46.51 47.00 48.25 49.94 51.33 52.80 54.61 56.50 57.29 58.28 58.15 58.66 59.82 60.58 62.65 62.49 62.12 61.65 61.13 62.23
44.49 44.65 44.75 45.89 46.79 48.25 49.97 51.52 53.34 55.70 55.39 55.51 56.40 56.87 57.71 59.71 61.20 62.44 61.68 61.68 61.65 62.46
42.00 43.61 44.83 44.75 44.75 45.73 49.10 49.94 51.54 53.42 55.59 56.26 55.97 56.59 57.61 57.93 60.47 61.01 62.76 63.43 61.82 60.87
41.26 41.76 42.94 43.91 44.12 45.65 47.36 48.05 49.01 50.44 53.71 55.07 55.48 57.37 57.75 58.00 59.70 60.55 60.50 61.23 61.63 61.82
41.36 41.63 42.42 43.75 43.99 44.87 44.93 45.60 47.16 48.37 50.13 51.98 54.50 53.12 52.33 55.02 58.71 60.34 59.94 59.11 59.13 60.14
42.14 41.83 41.76 42.19 42.61 43.81 44.69 45.18 45.48 47.42 49.94 51.77 52.56 50.86 49.07 49.90 55.36 58.90 58.97 58.60 58.97 58.60
42.10 42.07 42.18 41.97 42.04 43.56 44.39 43.37 43.89 45.87 50.38 52.04 52.77 49.05 46.71 47.38 53.65 57.56 57.42 58.26 58.55 57.90
42.71 42.31 42.37 41.73 41.45 42.38 43.37 44.49 45.92 46.80 48.95 50.11 52.01 48.77 45.44 47.94 54.75 56.10 56.70 56.70 57.34 58.01
43.02 43.06 42.61 42.41 41.99 42.67 43.85 44.85 45.28 46.62 50.61 50.69 51.80 48.52 44.90 49.88 54.40 55.22 55.48 58.83 58.82 52.98
43.68 44.22 44.12 43.49 43.16 42.63 42.50 43.46 44.94 46.50 48.99 51.47 51.89 51.92 45.98 47.62 53.13 54.86 55.12 57.83 56.36 55.00

GFSNIL_sfc_wetblb_096.txt.gz
Wetbulb
48.07 48.18 48.82 50.20 50.99 52.00 53.66 55.58 57.97 59.91 61.66 63.01 65.16 66.81 67.70 67.68 67.59 67.59 67.14 66.74 66.44 66.80
47.02 47.59 47.96 48.80 49.81 50.73 52.80 54.87 56.54 58.52 59.63 61.11 62.93 64.31 65.13 65.69 66.31 67.16 66.69 66.11 65.95 66.01
45.85 47.14 47.77 48.07 48.03 49.30 51.13 53.38 54.44 55.95 57.53 59.31 59.91 60.46 61.94 62.94 64.68 65.23 65.49 65.65 64.97 64.48
45.00 45.59 46.29 46.41 47.41 48.36 49.28 50.62 51.53 53.92 55.75 57.48 58.30 58.48 58.54 59.45 61.55 62.86 63.43 64.01 63.44 63.71
44.74 44.94 44.42 44.84 45.90 46.97 47.52 49.26 50.29 51.57 53.03 54.83 57.06 58.51 58.70 58.42 59.82 60.89 61.32 62.26 62.93 62.90
42.76 42.70 42.54 43.14 44.60 46.12 47.20 46.79 47.42 48.92 51.00 52.51 55.33 56.54 57.27 57.32 57.91 58.81 61.04 61.53 61.86 62.10
42.12 42.28 42.16 42.40 42.68 43.39 44.75 44.80 45.40 46.77 49.86 50.99 52.91 55.30 56.75 56.92 57.04 57.83 58.90 60.46 61.67 61.69
42.12 42.83 43.44 43.19 42.92 43.44 44.43 45.54 46.66 47.09 47.90 48.32 49.25 51.48 54.41 55.87 55.80 57.07 57.99 59.00 59.85 61.73
42.91 43.63 43.42 43.63 43.64 43.52 43.54 43.95 44.46 44.87 45.62 46.11 47.99 47.33 48.67 52.22 54.70 56.15 57.18 57.44 58.25 60.56
43.17 43.00 43.29 43.58 43.41 43.07 42.91 43.30 43.46 45.42 45.75 46.47 47.05 46.01 46.08 48.47 52.43 54.89 56.18 57.12 57.77 59.13
42.66 42.60 43.20 43.32 43.22 43.17 43.03 42.74 42.90 43.57 45.18 45.32 46.33 45.48 45.65 47.28 52.01 53.96 55.66 56.73 58.15 59.30
42.39 42.36 42.55 42.77 43.23 43.73 43.23 42.73 42.72 43.84 44.51 45.55 46.42 45.46 45.17 46.90 52.66 54.26 54.78 57.13 58.43 59.51
41.86 42.17 42.77 43.45 44.65 44.66 43.92 43.40 43.50 43.11 44.38 45.98 47.27 46.86 44.63 45.83 51.53 54.19 54.38 56.63 57.90 51.54
41.85 42.49 44.29 44.02 45.24 44.42 43.65 43.42 42.87 43.49 44.98 46.02 47.04 48.43 45.41 44.58 53.75 53.85 54.42 55.35 56.56 57.94

GFSNIL_sfc_wetblb_102.txt.gz
Wetbulb
59.74 58.52 58.52 59.62 58.52 58.37 58.47 59.48 61.68 61.11 61.40 62.02 63.39 63.97 65.59 66.08 67.74 70.17 69.80 71.02 70.86 67.29
58.68 58.34 57.77 58.21 58.21 57.52 58.87 58.55 59.16 59.37 59.22 59.54 60.19 60.95 63.26 62.51 66.26 69.11 69.71 68.39 70.36 68.99
57.24 57.50 57.16 56.93 56.84 57.14 57.27 57.46 57.18 57.34 57.82 58.08 58.40 59.00 60.11 61.10 63.42 65.92 66.73 66.46 67.24 67.71
55.74 55.97 55.84 55.39 55.66 55.66 55.73 55.46 54.93 55.23 55.41 55.61 56.50 57.66 58.29 58.73 59.06 60.94 64.68 65.88 66.58 66.94
54.85 54.83 54.43 54.25 54.40 54.72 53.91 54.48 53.74 53.71 53.49 53.32 53.97 54.97 54.68 54.30 56.40 57.71 59.57 62.94 64.30 64.84
53.75 53.55 53.53 53.31 53.58 53.26 52.85 52.54 52.28 51.65 51.19 50.83 51.43 51.20 52.18 52.61 53.69 55.04 57.38 59.84 61.75 63.09
53.02 53.10 52.84 52.86 52.33 51.54 50.53 49.64 49.38 49.40 49.19 49.18 48.71 48.37 49.18 49.66 50.24 52.46 54.01 56.77 60.16 61.49
52.61 52.58 52.02 50.59 49.74 49.83 50.44 49.93 49.27 48.80 48.94 48.80 48.74 47.48 47.92 48.44 49.01 50.21 50.47 51.36 53.29 58.43
51.35 50.88 50.33 50.20 49.77 49.49 50.30 49.22 49.06 49.82 49.78 48.33 47.31 45.67 45.78 46.87 46.27 47.14 48.22 48.39 50.24 52.93
51.05 50.83 49.91 49.14 49.12 48.77 49.35 49.47 48.49 49.76 47.95 49.64 47.67 45.16 44.17 45.24 46.06 45.52 46.87 48.21 47.97 50.21
50.86 49.50 50.16 50.46 50.30 48.90 47.79 47.02 48.47 49.12 49.48 48.58 47.88 44.55 43.21 43.91 46.04 45.86 46.80 47.45 48.62 49.24
48.88 48.37 50.18 48.79 47.72 48.50 46.96 45.84 47.25 49.06 50.10 48.89 48.21 44.32 42.84 43.97 46.52 45.34 46.89 49.05 51.10 51.35
47.44 48.30 46.68 46.70 46.00 47.55 46.13 46.49 47.05 47.70 48.62 47.56 46.76 44.81 42.56 43.57 46.21 46.13 47.03 47.68 49.58 48.10
48.08 48.01 46.79 47.18 47.84 46.61 46.07 47.58 47.78 48.10 46.90 48.55 48.20 48.43 43.78 42.91 48.09 47.15 47.31 49.18 50.54 55.24

GFSNIL_sfc_wetblb_105.txt.gz
Wetbulb
62.27 61.12 61.05 62.10 60.74 60.14 60.14 60.15 64.63 62.98 62.45 62.47 62.69 63.31 65.47 64.14 64.82 67.50 68.05 70.03 70.20 69.15
61.09 60.73 60.38 60.90 60.67 59.84 60.69 60.05 60.80 60.43 60.17 60.63 60.78 61.48 62.98 60.91 62.87 64.83 65.86 66.34 68.04 68.75
59.50 59.73 59.77 59.67 59.26 59.24 59.30 59.14 58.54 58.18 58.22 58.43 58.50 58.91 60.96 59.86 61.18 62.18 62.63 63.82 64.25 66.00
58.50 58.75 58.59 58.04 58.08 58.05 57.99 57.62 56.98 56.77 56.50 56.23 56.32 57.21 58.22 58.12 58.14 57.51 59.13 61.69 61.40 62.22
57.75 57.88 57.36 57.03 57.03 57.05 56.03 56.01 55.43 54.94 54.18 53.73 53.33 54.21 54.27 53.86 54.06 53.88 54.62 56.59 57.51 59.06
56.79 56.61 56.44 56.05 56.12 55.48 54.70 53.98 52.90 51.81 50.85 50.72 50.76 51.07 51.35 51.04 50.28 51.17 52.01 52.40 53.21 56.35
55.70 55.53 55.16 55.14 54.54 53.66 52.75 51.73 52.14 52.30 51.76 51.47 51.19 50.63 51.05 50.25 50.65 50.17 50.59 51.57 54.10 54.19
55.25 54.92 54.63 54.16 52.85 52.92 53.00 52.74 52.29 51.55 51.32 51.40 50.04 50.40 50.21 50.63 49.98 49.38 48.54 51.06 50.76 51.71
53.77 53.76 53.15 53.70 52.07 52.28 51.37 51.71 51.45 51.13 51.05 49.08 50.04 47.57 46.92 48.63 49.51 48.65 48.34 46.81 49.24 50.68
52.80 52.23 52.25 52.81 52.09 51.95 51.77 52.54 51.34 51.14 51.09 49.48 50.28 46.65 45.12 46.19 48.06 47.83 47.29 47.58 48.70 48.40
52.44 52.00 52.14 51.60 51.76 52.56 51.78 51.08 50.80 49.20 48.21 48.95 50.45 46.39 44.08 44.61 47.72 47.65 47.54 47.39 48.60 47.67
51.04 50.59 50.41 49.06 50.21 51.00 50.30 49.44 48.10 47.74 48.87 50.23 50.26 46.15 43.30 44.36 47.37 46.79 46.80 48.55 49.96 49.29
48.90 48.84 48.40 48.91 50.32 49.29 50.50 48.85 48.89 49.25 50.99 49.66 50.91 47.17 43.97 45.00 49.37 47.59 48.01 49.67 48.79 46.63
47.11 47.86 49.01 49.80 49.38 50.12 49.02 50.19 49.93 49.70 51.27 51.40 51.00 52.93 45.31 43.72 50.93 50.70 48.47 48.34 48.88 49.78

GFSNIL_sfc_wetblb_108.txt.gz
Wetbulb
63.96 61.85 62.30 62.11 60.94 60.35 60.04 60.67 62.95 61.83 60.68 60.18 59.94 60.44 61.34 60.91 60.75 61.61 62.00 63.13 64.59 65.42
62.04 62.01 61.49 62.24 62.63 60.64 60.72 59.24 59.88 59.47 59.28 59.08 58.74 58.55 59.09 57.85 58.81 59.95 60.05 60.28 61.12 61.92
61.20 61.22 61.35 60.90 60.02 59.90 59.55 58.90 58.12 57.72 57.55 57.56 57.21 57.22 56.93 55.73 56.63 56.89 57.23 57.79 58.21 59.11
59.96 59.66 59.81 59.05 58.88 58.52 58.43 57.44 55.99 55.78 55.22 54.13 53.65 53.95 53.33 53.17 53.49 53.44 53.60 54.39 54.33 55.06
59.38 59.07 58.67 58.02 57.79 57.96 56.35 55.78 54.43 53.84 53.12 52.43 52.28 52.19 51.39 50.47 50.86 50.48 50.55 50.78 51.25 51.33
58.44 58.16 57.57 56.73 56.98 56.57 54.91 53.70 53.18 52.65 52.18 51.77 51.88 51.33 51.02 50.29 50.25 50.00 49.84 49.86 49.52 49.20
57.26 57.15 56.45 56.24 55.97 54.78 54.27 53.33 52.75 52.63 52.10 51.55 51.41 51.31 51.07 50.42 50.11 50.59 50.39 50.23 50.34 49.57
56.59 56.43 55.59 54.98 54.64 54.52 53.64 52.59 52.53 51.50 51.17 51.20 51.38 51.17 49.90 49.14 49.31 48.92 48.90 49.69 49.46 49.37
54.87 54.40 54.43 54.21 54.25 53.57 53.32 53.04 52.45 51.94 51.46 50.96 50.70 47.79 47.41 48.50 48.44 49.04 48.98 48.16 48.10 48.68
52.89 52.53 53.04 52.83 52.63 51.96 51.71 52.28 50.51 51.12 50.93 49.84 49.46 46.58 45.40 46.89 48.53 48.83 48.30 48.15 47.54 47.48
50.54 51.06 51.46 51.48 50.66 50.29 50.08 49.59 50.00 50.00 49.92 48.70 49.39 46.48 44.95 45.37 48.16 48.78 48.54 48.33 48.21 47.69
47.14 48.52 49.08 48.57 48.05 49.76 49.02 49.81 50.01 49.97 49.70 49.80 50.24 46.94 45.02 45.72 49.06 49.33 49.36 49.46 48.86 48.36
45.45 46.57 46.80 47.60 48.33 48.94 49.56 49.39 49.72 50.10 50.82 50.53 50.95 47.47 45.17 45.54 49.23 48.59 49.00 49.95 50.29 47.34
43.67 45.56 46.72 48.77 48.13 49.55 49.16 49.12 48.57 49.92 51.10 51.18 50.74 50.29 44.87 44.26 46.76 47.50 48.07 48.82 50.11 51.17

GFSNIL_sfc_wetblb_111.txt.gz
Wetbulb
55.70 55.17 55.43 55.57 55.10 54.92 55.18 54.72 55.68 55.41 55.70 56.05 55.78 55.54 55.43 55.71 56.01 57.38 57.08 56.42 57.52 58.57
54.49 54.80 54.52 54.76 54.90 54.37 54.51 55.64 54.55 54.51 54.10 54.69 55.06 54.88 54.25 53.66 53.71 54.56 55.24 55.48 54.98 55.37
53.80 54.44 54.14 53.76 53.22 53.04 53.22 53.16 53.02 52.61 52.02 51.26 51.12 50.97 50.18 49.38 50.32 50.24 50.86 52.79 51.89 52.43
53.00 53.54 53.33 52.85 52.79 52.70 52.10 51.60 50.80 50.71 50.31 49.91 49.39 49.02 48.09 47.81 48.51 48.22 48.11 48.79 49.65 50.06
52.69 52.39 52.08 52.04 51.74 51.89 50.17 50.10 49.93 49.73 49.57 49.95 50.02 48.74 48.36 48.02 48.59 48.24 48.09 47.66 47.35 47.53
51.50 51.30 50.83 50.76 50.58 50.99 49.33 49.05 49.34 49.48 49.19 49.65 49.28 48.36 48.18 48.48 48.89 47.81 49.15 49.26 48.83 48.03
50.46 51.01 49.95 49.97 49.74 49.00 49.41 49.26 48.72 48.64 48.88 49.10 49.32 49.33 49.60 50.00 49.00 47.50 48.20 49.88 49.80 48.37
50.59 50.00 49.46 49.20 48.76 49.63 49.30 49.43 49.70 49.55 50.19 49.99 49.17 49.85 47.45 47.44 46.84 46.26 46.06 47.07 47.56 47.91
49.51 49.24 48.87 48.89 48.98 48.08 47.73 47.97 48.55 48.89 49.65 47.72 48.76 47.39 47.35 48.15 46.46 46.09 46.14 46.00 47.62 48.83
47.05 46.99 47.16 47.56 46.97 46.07 46.07 47.49 49.03 48.54 47.29 46.77 47.33 46.05 45.51 46.92 47.73 48.23 47.79 47.38 46.85 47.18
43.97 44.29 45.30 45.36 45.27 45.91 48.28 48.23 47.89 48.07 48.68 47.93 48.39 46.35 44.96 45.86 48.27 47.90 48.29 47.98 47.62 47.46
42.46 42.87 43.87 44.09 46.00 47.29 47.78 47.87 48.00 48.84 49.16 48.76 49.67 46.53 44.71 44.72 46.61 46.39 46.71 48.02 49.51 50.24
41.20 41.72 42.93 44.82 45.47 47.17 47.04 47.67 48.29 48.61 47.77 48.34 48.49 46.18 43.32 43.17 43.98 42.99 43.89 45.08 45.98 46.96
41.60 42.04 43.95 44.93 45.76 45.62 46.90 47.65 47.83 46.14 45.65 45.69 46.58 44.78 41.99 41.50 41.37 41.41 41.03 42.01 43.64 45.24

GFSNIL_sfc_wetblb_114.txt.gz
Wetbulb
53.76 53.90 53.50 53.08 52.84 52.55 52.28 52.62 52.91 52.92 53.27 53.82 54.54 54.23 53.20 52.75 52.72 53.17 52.91 53.08 53.83 54.40
53.13 52.95 52.55 52.41 52.64 52.52 52.57 53.81 52.40 52.17 51.22 51.21 50.74 50.39 49.28 48.98 48.79 49.03 48.59 48.53 50.23 50.18
52.45 52.66 52.07 51.91 51.39 51.50 51.30 50.85 49.94 49.47 49.01 48.97 49.18 48.93 47.73 46.97 47.51 47.46 47.20 48.26 48.28 47.81
51.62 51.93 51.69 51.10 50.85 50.85 49.82 49.08 49.06 49.22 48.71 48.60 48.41 48.25 47.20 46.63 47.36 47.67 47.08 46.99 47.04 47.14
50.70 50.64 50.39 49.92 49.97 50.22 48.65 48.54 48.68 49.02 48.87 49.06 49.31 48.63 47.38 47.31 48.22 47.75 47.50 47.28 46.90 47.49
49.67 49.80 49.10 49.05 49.20 49.79 48.31 47.60 48.16 48.30 48.12 48.60 48.86 47.99 47.55 47.48 47.95 47.87 48.25 47.80 47.28 47.33
48.01 49.10 48.44 48.64 48.16 47.64 48.07 47.85 47.97 48.21 48.53 48.90 48.53 48.33 48.56 47.99 46.59 46.35 47.07 47.19 47.27 47.21
47.46 47.49 47.49 47.29 47.16 47.24 46.89 47.49 48.20 48.15 47.66 47.29 48.14 48.71 47.73 48.43 48.29 47.83 47.31 47.55 47.39 47.21
44.57 45.46 45.63 45.99 45.92 45.34 45.36 46.12 46.54 46.77 46.66 46.51 48.00 46.89 47.17 48.44 48.02 48.33 47.58 46.93 47.62 47.68
43.19 43.43 43.48 44.67 44.67 44.06 44.16 45.33 45.69 45.40 47.73 46.63 46.27 45.85 45.46 46.83 47.79 47.62 46.92 47.55 47.86 48.19
41.14 41.52 42.71 42.83 43.20 43.56 44.07 44.85 45.13 46.75 48.35 46.67 47.79 46.31 44.74 44.87 45.63 45.33 45.63 46.55 46.99 47.31
39.73 40.38 40.81 41.69 44.21 43.35 43.81 45.28 45.76 45.88 46.58 45.98 46.47 45.11 42.83 42.80 42.48 42.79 43.83 45.45 46.21 46.08
40.27 41.62 41.88 43.41 43.82 45.54 45.71 46.57 47.67 46.67 45.59 45.92 44.70 42.49 41.52 41.36 40.40 40.22 41.70 42.49 43.97 44.55
39.94 39.08 41.76 42.11 43.49 44.50 45.04 43.64 44.19 43.33 43.45 43.89 42.03 41.11 40.44 40.11 38.78 39.48 39.64 41.24 43.33 46.47

GFSNIL_sfc_wetblb_117.txt.gz
Wetbulb
54.39 53.29 52.44 52.27 52.04 51.29 51.09 51.16 51.52 51.92 51.90 51.53 51.10 50.41 48.90 48.66 48.56 49.47 48.16 48.07 47.73 48.62
52.40 52.30 51.35 51.20 51.08 51.08 50.74 52.08 50.77 50.08 49.17 49.07 49.10 48.69 47.48 46.22 46.27 46.37 46.05 45.72 45.95 46.67
51.77 51.55 50.90 50.63 50.27 50.14 50.00 49.29 48.78 48.17 47.69 47.57 47.78 47.70 46.86 45.98 46.26 46.23 46.39 47.19 46.02 45.96
51.02 51.12 50.86 50.49 50.20 49.81 48.87 48.26 48.01 48.20 47.91 47.71 47.69 47.55 46.72 46.33 46.69 46.60 46.63 47.07 46.94 46.93
50.17 50.31 49.51 48.89 49.04 49.37 47.99 47.45 47.78 48.19 48.11 48.17 48.16 47.83 46.97 46.58 47.12 46.88 46.46 47.04 47.30 47.38
47.99 48.45 48.05 48.04 48.10 48.57 47.16 46.94 47.64 47.87 47.68 47.68 47.88 47.57 47.13 46.88 46.97 47.11 47.48 47.99 47.38 46.75
45.18 46.03 46.42 46.53 46.69 46.93 46.93 46.56 46.83 47.15 47.48 47.57 47.61 47.73 47.66 47.54 48.53 48.44 48.52 48.73 48.51 47.63
43.53 44.54 45.36 45.42 45.04 45.23 45.37 46.00 46.40 46.51 46.56 46.23 46.76 48.35 48.00 48.29 48.31 47.28 47.23 48.06 48.76 48.19
42.06 42.81 42.79 43.75 44.30 43.89 44.30 44.88 45.23 45.67 45.48 45.13 47.38 46.91 47.17 48.17 47.20 46.26 46.63 46.10 47.78 48.48
40.83 41.18 41.68 42.51 42.95 43.11 42.86 43.17 43.68 44.23 44.93 46.22 45.41 45.62 44.98 45.42 43.88 44.09 44.26 45.04 45.77 46.68
38.90 39.42 40.44 40.35 41.28 41.82 42.07 42.95 43.23 44.55 45.27 45.00 45.66 45.03 42.95 43.41 42.07 41.60 42.34 43.51 44.52 45.13
37.78 38.53 39.50 40.43 41.68 41.77 41.47 42.54 45.47 46.82 46.23 43.05 42.89 42.70 41.36 40.91 40.81 40.16 40.37 42.16 43.59 44.17
39.70 39.81 39.67 41.47 40.80 43.23 44.12 44.83 44.71 43.87 42.10 43.51 40.31 40.25 40.27 39.80 38.74 37.86 38.97 40.55 42.29 44.33
38.48 38.19 40.14 40.56 41.41 40.19 40.90 41.26 41.12 40.06 38.57 37.80 38.22 38.03 39.75 38.95 37.91 37.65 37.82 39.46 41.62 45.53

GFSNIL_sfc_wetblb_123.txt.gz
Wetbulb
60.56 60.12 59.84 59.52 60.00 59.34 57.34 57.35 58.35 57.14 56.67 56.50 56.54 56.56 56.68 55.80 55.46 55.86 54.95 54.83 54.61 53.59
58.37 58.51 58.13 57.89 58.87 57.06 57.08 55.91 55.71 56.11 56.05 55.97 55.94 56.15 56.33 55.21 55.40 55.39 54.99 54.69 54.67 54.11
57.48 57.20 57.66 57.35 56.73 56.74 56.92 56.38 55.73 55.54 55.77 55.69 55.80 55.90 55.90 55.09 55.19 54.61 54.23 54.12 54.32 54.36
57.59 57.11 57.35 56.52 56.56 56.42 56.50 55.77 54.87 54.96 54.99 55.08 54.93 54.91 54.59 54.44 53.96 53.70 54.19 54.86 54.28 54.35
56.47 56.97 56.35 55.92 56.46 56.35 55.48 55.31 54.60 54.72 54.50 54.06 53.80 54.13 53.55 53.24 53.76 53.71 53.44 54.02 54.20 54.02
55.88 55.67 55.42 55.55 55.69 55.62 55.26 55.01 54.77 54.09 53.64 53.03 53.04 52.78 53.45 53.84 53.88 54.05 54.10 54.14 53.48 53.22
53.58 53.91 53.99 53.96 53.76 53.87 53.78 53.66 53.39 53.33 52.67 52.68 52.76 53.19 53.51 53.41 53.21 53.04 52.75 52.46 52.02 52.58
51.04 51.91 52.21 52.03 52.13 52.23 52.36 52.29 52.41 52.04 52.31 52.65 52.76 51.77 51.21 51.01 50.91 51.16 50.68 50.97 51.62 52.59
49.19 49.30 49.48 49.75 50.34 50.97 51.17 51.45 51.52 51.42 51.72 52.23 51.40 44.16 43.40 45.03 48.19 49.22 49.50 49.82 51.03 51.76
46.88 47.07 47.58 48.36 49.23 49.39 49.77 50.54 50.85 51.63 51.80 50.96 50.99 42.11 41.80 42.43 47.40 48.08 48.61 48.90 49.43 49.06
46.32 46.71 47.23 47.75 48.13 49.08 49.54 49.85 50.46 50.54 49.52 48.30 46.58 40.89 40.46 40.47 47.51 47.76 48.08 46.14 47.37 46.72
45.21 45.65 46.40 46.07 45.81 46.15 48.15 48.74 48.43 48.39 46.60 46.25 46.10 39.58 39.82 40.57 45.62 46.38 44.94 43.86 44.52 44.76
44.80 45.53 45.61 44.16 45.28 45.50 45.77 45.83 46.38 44.51 44.23 42.37 44.11 39.56 38.31 38.87 42.41 42.46 41.43 42.88 45.22 44.69
44.91 45.27 44.73 44.29 43.62 42.86 42.83 42.46 41.60 42.50 43.75 43.84 41.64 40.56 38.01 37.82 38.95 38.85 39.87 43.23 45.44 46.94